Weather History for Atlantic City, NJ

Change the Weather History Date:

Wednesday, September 5, 2012

  Actual Average Record
Temperature  
Mean Temperature 26 °C 22 °C  
Max Temperature 31 °C 27 °C 34 °C (1880)
Min Temperature 21 °C 16 °C 6 °C (1994)
Degree Days  
Heating Degree Days 0 1  
Month to date heating degree days 0 2  
Since 1 July heating degree days 0 5  
Cooling Degree Days 14 6  
Month to date cooling degree days 63 34  
Year to date cooling degree days 1122 943  
Growing Degree Days 29 (Base 50)    
Moisture  
Dew Point 22 °C    
Average Humidity 78    
Maximum Humidity 94    
Minimum Humidity 61    
Precipitation  
Precipitation 10.41 mm 2.29 mm 19.10 mm (1935)
Month to date precipitation 2.57 0.49  
Year to date precipitation 31.07 28.71  
Snow  
Snow 0.00 cm 0.00 cm 0.00 cm (1903)
Month to date snowfall 0.0 0.0  
Since 1 July snowfall 0.0 0.0  
Since 1 September snowfall 0.0 0.0  
Snow Depth 0.00 cm    
Sea Level Pressure  
Sea Level Pressure 1010 hPa    
Wind  
Wind Speed 14 km/h (WSW)    
Max Wind Speed 39 km/h    
Max Gust Speed 50 km/h    
Visibility 12 kilometers    
Events Fog , Rain , Thunderstorm    
T = Trace of Precipitation, MM = Missing Value Source: NWS Daily Summary

Daily Weather History Graph

Daily Weather History Graph

Search for Another Location

Airport:

Trip Planner

Search our weather history database for the weather conditions in past years. The results will help you decide how hot, cold, wet, or windy it might be!

Date:

Astronomy

Sep. 05, 2012 Rise Set
Actual Time 6:30 AM EDT 7:22 PM EDT
Civil Twilight 6:03 AM EDT 7:49 PM EDT
Nautical Twilight 5:30 AM EDT 8:21 PM EDT
Astronomical Twilight 4:57 AM EDT 8:55 PM EDT
Moon 9:52 PM EDT (9/5) 11:30 AM EDT (9/5)
Length of Visible Light 13h 46m
Length of Day
12h 51m
Waning Gibbous, 76% of the Moon is Illuminated
Sep 5
Waning Gibbous
Sep 8
Last Quarter
Sep 15
New
Sep 22
First Quarter
Sep 29
Full

Hourly Weather History & Observations

Time (EDT) Temp. Heat Index Dew Point Humidity Pressure Visibility Wind Dir Wind Speed Gust Speed Precip Events Conditions
12:54 AM 25.0 °C - 22.8 °C 88% 1012.2 hPa 16.1 km SSW 14.8 km/h / 4.1 m/s 27.8 km/h / 7.7 m/s N/A   Clear
1:54 AM 25.0 °C - 23.3 °C 90% 1011.6 hPa 16.1 km SW 13.0 km/h / 3.6 m/s - N/A   Scattered Clouds
2:54 AM 25.0 °C - 23.3 °C 90% 1011.1 hPa 16.1 km SW 18.5 km/h / 5.1 m/s - N/A   Partly Cloudy
3:54 AM 25.0 °C - 23.3 °C 90% 1010.9 hPa 16.1 km SSW 14.8 km/h / 4.1 m/s - N/A   Mostly Cloudy
4:54 AM 25.0 °C - 23.3 °C 90% 1010.8 hPa 16.1 km North - - N/A   Mostly Cloudy
5:54 AM 25.6 °C - 22.8 °C 84% 1010.9 hPa 16.1 km SSW 14.8 km/h / 4.1 m/s - N/A   Mostly Cloudy
6:54 AM 25.6 °C - 22.8 °C 84% 1010.8 hPa 16.1 km SW 18.5 km/h / 5.1 m/s - N/A   Overcast
7:07 AM 26.0 °C - 23.0 °C 83% 1010.7 hPa 16.1 km SSW 16.7 km/h / 4.6 m/s - N/A   Overcast
7:54 AM 26.1 °C - 22.8 °C 82% 1010.5 hPa 16.1 km SW 16.7 km/h / 4.6 m/s 29.6 km/h / 8.2 m/s N/A   Mostly Cloudy
8:54 AM 26.7 °C 29.0 °C 22.8 °C 79% 1010.4 hPa 16.1 km SSW 20.4 km/h / 5.7 m/s - N/A   Overcast
9:54 AM 27.2 °C 29.9 °C 22.8 °C 77% 1010.6 hPa 16.1 km SSW 16.7 km/h / 4.6 m/s - N/A   Mostly Cloudy
10:22 AM 28.0 °C 30.7 °C 22.0 °C 70% 1010.4 hPa 16.1 km SW 20.4 km/h / 5.7 m/s 38.9 km/h / 10.8 m/s N/A   Mostly Cloudy
10:54 AM 27.2 °C 29.6 °C 22.2 °C 74% 1010.6 hPa 16.1 km SW 22.2 km/h / 6.2 m/s - N/A   Overcast
11:20 AM 27.0 °C 29.2 °C 22.0 °C 74% 1010.4 hPa 16.1 km WSW 13.0 km/h / 3.6 m/s - N/A   Overcast
11:54 AM 27.8 °C 30.4 °C 22.2 °C 71% 1010.2 hPa 16.1 km SW 16.7 km/h / 4.6 m/s - N/A   Overcast
12:14 PM 28.0 °C 30.7 °C 22.0 °C 70% 1010.0 hPa 16.1 km SSW 20.4 km/h / 5.7 m/s 31.5 km/h / 8.7 m/s N/A   Mostly Cloudy
12:29 PM 29.0 °C 32.7 °C 23.0 °C 70% 1009.7 hPa 16.1 km SW 20.4 km/h / 5.7 m/s - N/A   Mostly Cloudy
12:54 PM 29.4 °C 32.3 °C 21.7 °C 63% 1009.5 hPa 16.1 km West 20.4 km/h / 5.7 m/s 35.2 km/h / 9.8 m/s N/A   Mostly Cloudy
1:05 PM 29.0 °C 32.0 °C 22.0 °C 66% 1009.4 hPa 16.1 km WSW 20.4 km/h / 5.7 m/s - N/A   Mostly Cloudy
1:12 PM 29.0 °C 32.0 °C 22.0 °C 66% 1009.4 hPa 16.1 km SW 27.8 km/h / 7.7 m/s 37.0 km/h / 10.3 m/s N/A   Scattered Clouds
1:54 PM 29.4 °C 32.3 °C 21.7 °C 63% 1009.3 hPa 16.1 km WSW 16.7 km/h / 4.6 m/s 29.6 km/h / 8.2 m/s N/A   Mostly Cloudy
2:54 PM 30.0 °C 33.4 °C 22.2 °C 63% 1008.5 hPa 16.1 km WSW 16.7 km/h / 4.6 m/s - N/A   Partly Cloudy
3:54 PM 30.0 °C 33.0 °C 21.7 °C 61% 1008.3 hPa 16.1 km WSW 18.5 km/h / 5.1 m/s - N/A   Partly Cloudy
4:54 PM 29.4 °C 32.6 °C 22.2 °C 65% 1008.5 hPa 16.1 km SW 16.7 km/h / 4.6 m/s - N/A   Scattered Clouds
5:55 PM 27.0 °C 29.2 °C 22.0 °C 74% 1009.0 hPa 16.1 km WNW 38.9 km/h / 10.8 m/s 50.0 km/h / 13.9 m/s N/A Thunderstorm Thunderstorm
6:02 PM 25.0 °C - 22.0 °C 83% 1009.4 hPa 3.2 km WNW 22.2 km/h / 6.2 m/s 50.0 km/h / 13.9 m/s 0.0 mm Rain , Thunderstorm Thunderstorms and Rain
6:07 PM 24.0 °C - 22.0 °C 89% 1009.4 hPa 2.4 km NW 16.7 km/h / 4.6 m/s - 1.0 mm Rain , Thunderstorm Thunderstorms and Rain
6:11 PM 24.0 °C - 22.0 °C 89% 1009.4 hPa 1.2 km NW 20.4 km/h / 5.7 m/s - 4.1 mm Rain , Thunderstorm Thunderstorms and Rain
6:20 PM 24.0 °C - 23.0 °C 94% 1009.7 hPa - NW 9.3 km/h / 2.6 m/s 27.8 km/h / 7.7 m/s 10.2 mm Rain Light Rain
6:54 PM 23.9 °C - 22.8 °C 94% 1010.0 hPa 12.9 km NE 5.6 km/h / 1.5 m/s - 10.4 mm   Overcast
7:08 PM 24.0 °C - 23.0 °C 94% 1010.4 hPa 11.3 km North 9.3 km/h / 2.6 m/s - N/A   Overcast
7:46 PM 24.0 °C - 23.0 °C 94% 1010.4 hPa 14.5 km Calm Calm - 0.0 mm   Overcast
7:54 PM 24.4 °C - 22.8 °C 91% 1010.7 hPa 16.1 km Calm Calm - 0.0 mm   Mostly Cloudy
8:54 PM 23.9 °C - 22.8 °C 94% 1010.9 hPa 8.0 km Calm Calm - N/A   Clear
9:48 PM 23.0 °C - 23.0 °C 100% 1010.7 hPa 2.8 km NW 5.6 km/h / 1.5 m/s - N/A   Clear
9:51 PM 23.0 °C - 22.0 °C 94% 1010.7 hPa 1.6 km Calm Calm - N/A   Mist
9:54 PM 22.8 °C - 22.2 °C 96% 1010.5 hPa 1.2 km Calm Calm - N/A   Mist
10:01 PM 22.0 °C - 22.0 °C 100% 1010.4 hPa 0.4 km Calm Calm - N/A Fog Fog
10:13 PM 22.0 °C - 22.0 °C 100% 1010.7 hPa 1.6 km Calm Calm - N/A Fog Fog
10:16 PM 22.0 °C - 22.0 °C 100% 1010.7 hPa 3.2 km Calm Calm - N/A Fog Fog
10:24 PM 23.0 °C - 22.0 °C 94% 1011.1 hPa 9.7 km Calm Calm - N/A Fog Fog
10:54 PM 23.3 °C - 22.2 °C 93% 1011.1 hPa 9.7 km WNW 5.6 km/h / 1.5 m/s - N/A   Clear
11:54 PM 22.8 °C - 21.7 °C 93% 1011.1 hPa 6.4 km Calm Calm - N/A   Clear